TimeCST,TemperatureF,Dew PointF,Humidity,Sea Level PressureIn,VisibilityMPH,Wind Direction,Wind SpeedMPH,Gust SpeedMPH,PrecipitationIn,Events,Conditions,WindDirDegrees,DateUTC
12:53 AM,50.0,48.0,93,30.20,10.0,Calm,Calm,-,N/A,,Clear,0,2012-11-12 06:53:00
1:53 AM,50.0,48.0,93,30.19,10.0,Calm,Calm,-,N/A,,Clear,0,2012-11-12 07:53:00
2:53 AM,57.0,53.1,87,30.16,10.0,SE,8.1,-,N/A,,Clear,140,2012-11-12 08:53:00
3:53 AM,57.9,53.1,84,30.16,10.0,SE,3.5,-,N/A,,Clear,130,2012-11-12 09:53:00
4:53 AM,60.1,55.0,83,30.17,10.0,Calm,Calm,-,N/A,,Clear,0,2012-11-12 10:53:00
5:53 AM,55.9,53.1,90,30.19,9.0,Calm,Calm,-,N/A,,Clear,0,2012-11-12 11:53:00
6:53 AM,59.0,55.9,90,30.20,10.0,Calm,Calm,-,N/A,,Partly Cloudy,0,2012-11-12 12:53:00
7:43 AM,64.4,60.8,88,30.21,10.0,Variable,3.5,-,N/A,,Mostly Cloudy,0,2012-11-12 13:43:00
7:53 AM,66.0,61.0,84,30.20,10.0,SSE,6.9,-,N/A,,Overcast,150,2012-11-12 13:53:00
8:38 AM,69.8,62.6,78,30.22,10.0,South,11.5,-,N/A,,Overcast,180,2012-11-12 14:38:00
8:53 AM,70.0,63.0,78,30.22,10.0,South,11.5,-,N/A,,Overcast,180,2012-11-12 14:53:00
9:28 AM,71.6,64.4,78,30.24,10.0,South,10.4,-,N/A,,Overcast,180,2012-11-12 15:28:00
9:53 AM,72.0,64.0,76,30.23,10.0,South,12.7,-,N/A,,Overcast,170,2012-11-12 15:53:00
10:15 AM,71.6,64.4,78,30.23,10.0,South,13.8,-,N/A,,Overcast,170,2012-11-12 16:15:00
10:53 AM,72.0,64.9,78,30.22,10.0,SSE,9.2,-,N/A,,Overcast,160,2012-11-12 16:53:00
11:18 AM,69.8,64.4,83,30.22,3.0,Variable,6.9,-,0.01,Rain,Rain,0,2012-11-12 17:18:00
11:20 AM,68.0,64.4,88,30.22,1.8,Variable,6.9,-,0.04,Rain,Heavy Rain,0,2012-11-12 17:20:00
11:25 AM,66.2,62.6,88,30.23,0.8,Variable,6.9,-,0.15,Rain,Heavy Rain,0,2012-11-12 17:25:00
11:38 AM,62.6,60.8,94,30.23,2.0,NW,10.4,16.1,0.22,Rain,Rain,320,2012-11-12 17:38:00
11:45 AM,62.6,60.8,94,30.23,1.8,NW,9.2,18.4,0.24,Rain,Rain,310,2012-11-12 17:45:00
11:53 AM,62.1,59.0,90,30.24,2.5,Variable,5.8,16.1,0.25,Rain,Rain,0,2012-11-12 17:53:00
12:18 PM,60.8,59.0,94,30.23,3.0,NNW,6.9,-,0.03,Rain,Light Rain,330,2012-11-12 18:18:00
12:53 PM,60.1,57.0,90,30.24,2.5,Variable,6.9,16.1,0.05,Rain,Light Rain,0,2012-11-12 18:53:00
1:07 PM,59.0,57.2,94,30.24,2.5,NNW,9.2,-,0.02,Rain,Rain,330,2012-11-12 19:07:00
1:11 PM,59.0,57.2,94,30.24,3.0,NNW,8.1,-,0.02,Rain,Light Rain,330,2012-11-12 19:11:00
1:53 PM,59.0,55.9,90,30.24,10.0,NNW,6.9,16.1,0.02,Rain,Light Rain,330,2012-11-12 19:53:00
2:53 PM,57.9,55.0,90,30.23,10.0,North,8.1,-,0.00,,Overcast,350,2012-11-12 20:53:00
3:51 PM,57.2,53.6,88,30.27,6.0,NNW,10.4,20.7,0.00,Rain,Light Rain,340,2012-11-12 21:51:00
3:53 PM,57.0,54.0,89,30.27,6.0,NNW,10.4,-,0.00,Rain,Light Rain,340,2012-11-12 21:53:00
4:29 PM,57.2,53.6,88,30.28,10.0,North,5.8,-,0.01,,Overcast,350,2012-11-12 22:29:00
4:53 PM,55.9,53.1,90,30.28,10.0,North,9.2,-,0.01,Rain,Light Rain,350,2012-11-12 22:53:00
5:53 PM,55.9,52.0,87,30.30,10.0,North,6.9,-,0.00,,Overcast,350,2012-11-12 23:53:00
6:53 PM,55.9,52.0,87,30.32,10.0,NNW,8.1,-,N/A,,Overcast,340,2012-11-13 00:53:00
7:05 PM,55.4,51.8,88,30.32,10.0,NNW,6.9,-,N/A,,Overcast,340,2012-11-13 01:05:00
7:14 PM,55.4,51.8,88,30.32,10.0,NNW,5.8,-,N/A,,Overcast,340,2012-11-13 01:14:00
7:53 PM,55.0,50.0,83,30.32,10.0,North,10.4,18.4,N/A,,Overcast,350,2012-11-13 01:53:00
8:05 PM,53.6,48.2,82,30.33,10.0,NNW,10.4,-,N/A,,Mostly Cloudy,340,2012-11-13 02:05:00
8:53 PM,52.0,46.9,83,30.33,10.0,North,6.9,-,N/A,,Clear,350,2012-11-13 02:53:00
9:53 PM,50.0,45.0,83,30.33,10.0,North,6.9,19.6,N/A,,Clear,350,2012-11-13 03:53:00
10:53 PM,48.0,42.1,80,30.34,10.0,North,9.2,-,N/A,,Clear,350,2012-11-13 04:53:00
11:53 PM,46.0,39.9,79,30.34,10.0,North,8.1,-,N/A,,Clear,350,2012-11-13 05:53:00